{"data":{"norad_id":59304,"intl_designator":"2024-056J","name":"STARLINK-31474","alt_names":[],"object_type":"PAYLOAD","status":"ACTIVE","operator":null,"country":"US","launch_date":"2024-03-24","launch_site_code":"AFETR","launch_vehicle":null,"mission":null,"orbit_class":"UNKNOWN","rcs_meters":null,"size_class":null,"mass_kg":null,"dimensions":null,"purposes":["comms"],"wikipedia_slug":null,"has_3d_model":false,"image_url":null,"decayed_at":null,"tle_current":{"epoch":"2026-05-25T01:31:20.714880Z","epoch_age_seconds":83773,"freshness":"FRESH","line1":"1 59304U 24056J   26145.06343420 -.00002259  00000+0 -72590-4 0  9994","line2":"2 59304  43.0020 152.5588 0001019 261.4462  98.6274 15.27588389122919","mean_motion":15.27588389,"eccentricity":0.0001019,"inclination_deg":43.002,"raan_deg":152.5588,"arg_perigee_deg":261.4462,"mean_anomaly_deg":98.6274,"bstar":-7.259e-5,"rev_number":12291,"period_min":94.266231032475,"perigee_km":482.32482416718,"apogee_km":483.72312877419,"semimajor_km":6861.1609764707,"source":"CELESTRAK","updated_at":"2026-05-25T13:38:18.899147Z"}}}